Regional Weather Roundup
Issued by NWS

Home | Current Version | Previous Version | Text Only | Print | Product List | Glossary On
Versions: 1 2 3 4 5 6 7 8 9 10 11 12 13 14 15 16 17 18 19 20 21 22 23 24 25 26 27 28 29 30 31 32 33 34 35 36 37 38 39 40 41 42 43 44 45 46 47 48 49 50
790
ASUS43 KIND 182209
RWRIN

WEATHER ROUNDUP FOR INDIANA
NATIONAL WEATHER SERVICE INDIANAPOLIS IN
500 PM EST MON DEC 18 2017

NOTE: "FAIR" INDICATES FEW OR NO CLOUDS BELOW 12,000 FEET WITH NO
SIGNIFICANT WEATHER AND/OR OBSTRUCTIONS TO VISIBILITY.

* - STATION DOES NOT REPORT WEATHER SUCH AS PRECIPITATION OR FOG.

+ - STATION NOT QUALITY CONTROLLED BY THE NATIONAL WEATHER SERVICE.
    USE DATA WITH CAUTION...ESPECIALLY DEWPOINT AND RELATIVE
    HUMIDITY OBSERVATIONS.

INZ001>003-010>013-019-020-182300-
NORTHWEST INDIANA

CITY           SKY/WX    TMP DP  RH WIND       PRES   REMARKS
GARY /AIRPORT/ PTCLDY    46  37  71 SW17G29   29.90S
KNOX *+        CLOUDY    45  41  87 SW15      29.90S
LA PORTE +     CLEAR     43  39  85 W12G17    29.90S
MICHIGAN CITY+ PTCLDY    43  37  81 W13G22    29.89S
MONTICELLO +   CLOUDY    46  39  76 SW12      29.94S
RENSSELAER +   MOCLDY    45  37  76 SW14G20   29.93S
VALPARAISO     CLEAR     45  40  82 W13       29.90S

$$

LMZ046-743>745-182300-
SOUTHERN LAKE MICHIGAN

STATION/POSITION TIME  TEMP    WIND        PRES    WAVE
                       AIR SEA DIR/SP/G            HT
                 (UTC) (F)     (DEG/KT/KT) (MB)    (FT)
BURNS HARBOR     2140   44     230/ 12/ 19 1012.9S
MICHIGAN CITY    2140   42     230/ 17/ 18   N/A

$$

INZ004-005-014>016-021>024-182300-
NORTH CENTRAL INDIANA

CITY           SKY/WX    TMP DP  RH WIND       PRES   REMARKS
ELKHART        CLOUDY    45  41  87 W9G18     29.88S
GOSHEN         CLOUDY    44  42  93 SW13      29.89S
LOGANSPORT +   CLOUDY    45  39  81 SW8       29.95R
PERU/GRISSOM   CLOUDY    46  43  90 SW12      29.93S
ROCHESTER +    CLOUDY    46  43  87 W12G17    29.92S
SOUTH BEND     MOCLDY    42  42 100 W17       29.89S
WARSAW +       CLOUDY    45  41  87 W12       29.91R

$$

INZ006>009-017-018-025>027-182300-
NORTHEAST INDIANA

CITY           SKY/WX    TMP DP  RH WIND       PRES   REMARKS
AUBURN +       CLOUDY    45  39  81 SW7       29.91R
FORT WAYNE     CLOUDY    46  41  82 SW17      29.93R
HUNTINGTON +   CLOUDY    45  40  83 SW12      29.93S
KENDALLVILLE + CLOUDY    43  42  95 W14       29.89S FOG

$$

INZ028-029-035-036-043>045-051>053-182300-
WEST CENTRAL INDIANA

CITY           SKY/WX    TMP DP  RH WIND       PRES   REMARKS
CRAWFORDSVL +  CLOUDY    44  40  85 SW13      29.98S
GREENCASTLE +  CLOUDY    43  41  93 SW6       30.00F FOG
LAFAYETTE      CLOUDY    47  40  76 SW10      29.96R
TERRE HAUTE    CLOUDY    46  41  82 SW10      30.01S

$$

INZ030>032-037>040-046>048-054>057-064-065-182300-
CENTRAL INDIANA

CITY           SKY/WX    TMP DP  RH WIND       PRES   REMARKS
COLUMBUS       CLOUDY    45  43  93 SW7       30.03R FOG
FRANKFORT +    CLOUDY    48  41  76 W15G21    29.98S
INDIANAPOLIS   NOT AVBL
-EAGLE CREEK   CLOUDY    46  40  79 VRB7      29.98S
KOKOMO +       CLOUDY    46  40  79 SW15      29.96R
MARION +       CLOUDY    45  40  83 SW15G21   29.96S
MT COMFORT *+  CLOUDY    43  43 100 SW12      30.00R
SHELBYVILLE    CLOUDY    46  42  86 SW10      30.01R
ZIONSVILLE +   CLOUDY    44  39  82 SW14      29.98S

$$

INZ033-034-041-042-049-050-058-059-182300-
EAST CENTRAL INDIANA

CITY           SKY/WX    TMP DP  RH WIND       PRES   REMARKS
MUNCIE         CLOUDY    47  40  76 SW15      29.97R
RICHMOND +     CLOUDY    41  41 100 SW12      30.01R FOG

$$

INZ060-061-067>069-081>083-085>088-182300-
SOUTHWEST INDIANA

CITY           SKY/WX    TMP DP  RH WIND       PRES   REMARKS
EVANSVILLE     LGT RAIN  48  45  89 SW7       30.08S
HUNTINGBURG +  LGT RAIN  47  45  93 SW8       30.07S
WASHINGTON +   CLOUDY    46  45  93 SW9       30.05S

$$

INZ062-063-066-070>080-084-089>092-182300-
SOUTH CENTRAL AND SOUTHEAST INDIANA

CITY           SKY/WX    TMP DP  RH WIND       PRES   REMARKS
BEDFORD +      CLOUDY    45  43  93 SW6       30.03F FOG
BLOOMINGTON    CLOUDY    46  42  86 SW8       30.02S
MADISON *+     CLOUDY    45  43  93 SW8       30.07R
NORTH VERNON + CLOUDY    43  43 100 SW8       30.04R FOG
SEYMOUR +      CLOUDY    46  45  93 SW8       30.04S FOG

$$





USA.gov is the U.S. government's official web portal to all federal, state and local government web resources and services.